New Ulm, MN

10:00 AM CDT on June 26, 2017 (GMT -0500)
New Ulm Municipal

Weather History for KULM - September, 2012

Change the Weather History Date:

Tuesday, September 4, 2012

  Actual Average Record
Temperature  
Mean Temperature 78 °F -  
Max Temperature 91 °F 78 °F 91 °F (1960)
Min Temperature 64 °F 55 °F 38 °F (1974)
Cooling Degree Days 12    
Growing Degree Days 28 (Base 50)    
Moisture  
Dew Point 54 °F    
Average Humidity 52    
Maximum Humidity 88    
Minimum Humidity 15    
Precipitation  
Precipitation 0.05 in - - ()
Sea Level Pressure  
Sea Level Pressure 29.82 in    
Wind  
Wind Speed 6 mph (SSW)    
Max Wind Speed 15 mph    
Max Gust Speed 28 mph    
Visibility 10 miles    
Events Rain , Thunderstorm    
Averages and records for this station are not official NWS values.
T = Trace of Precipitation, MM = Missing Value Source: NWS Daily Summary

Daily Weather History Graph

Daily Weather History Graph

Search for Another Location

Airport or City:

Trip Planner

Search our weather history database for the weather conditions in past years. The results will help you decide how hot, cold, wet, or windy it might be!

Date:

Astronomy

Sep. 04, 2012 Rise Set
Actual Time 6:44 AM CDT 7:47 PM CDT
Civil Twilight 6:15 AM CDT 8:17 PM CDT
Nautical Twilight 5:39 AM CDT 8:52 PM CDT
Astronomical Twilight 5:02 AM CDT 9:30 PM CDT
Moon 9:28 PM CDT (9/4) 11:04 AM CDT (9/4)
Length of Visible Light 14h 02m
Length of Day
13h 03m
Waning Gibbous, 83% of the Moon is Illuminated
Sep 4
Waning Gibbous
Sep 8
Last Quarter
Sep 15
New
Sep 22
First Quarter
Sep 29
Full

Hourly Weather History & Observations

Time (CDT) Temp. Heat Index Dew Point Humidity Pressure Visibility Wind Dir Wind Speed Gust Speed Precip Events Conditions
12:12 AM 71.6 °F - 66.2 °F 83% 29.89 in 10.0 mi SSW 5.8 mph - N/A   Clear
12:53 AM 71.6 °F - 66.2 °F 83% 29.89 in 10.0 mi South 6.9 mph - N/A   Clear
1:13 AM 71.6 °F - 66.2 °F 83% 29.86 in 10.0 mi SSE 8.1 mph - N/A   Clear
1:32 AM 71.6 °F - 66.2 °F 83% 29.85 in 10.0 mi East 3.5 mph - N/A   Clear
1:53 AM 71.6 °F - 64.4 °F 78% 29.84 in 10.0 mi SE 9.2 mph - N/A   Clear
2:13 AM 73.4 °F - 64.4 °F 73% 29.84 in 10.0 mi East 4.6 mph - N/A   Clear
2:32 AM 71.6 °F - 62.6 °F 73% 29.83 in 10.0 mi SE 8.1 mph - N/A   Clear
2:53 AM 69.8 °F - 62.6 °F 78% 29.83 in 10.0 mi SE 5.8 mph - N/A   Clear
3:13 AM 66.2 °F - 60.8 °F 83% 29.82 in 10.0 mi SSE 6.9 mph - N/A   Clear
3:32 AM 69.8 °F - 60.8 °F 73% 29.82 in 10.0 mi Calm Calm - N/A   Clear
3:53 AM 66.2 °F - 60.8 °F 83% 29.82 in 10.0 mi South 5.8 mph - N/A   Clear
4:13 AM 66.2 °F - 60.8 °F 83% 29.82 in 10.0 mi South 8.1 mph - N/A   Clear
4:32 AM 66.2 °F - 60.8 °F 83% 29.83 in 10.0 mi South 8.1 mph - N/A   Clear
4:53 AM 66.2 °F - 60.8 °F 83% 29.83 in 10.0 mi South 9.2 mph - N/A   Clear
5:13 AM 66.2 °F - 60.8 °F 83% 29.84 in 10.0 mi South 6.9 mph - N/A   Clear
5:33 AM 66.2 °F - 60.8 °F 83% 29.84 in 10.0 mi South 6.9 mph - N/A   Clear
5:53 AM 66.2 °F - 60.8 °F 83% 29.84 in 10.0 mi South 8.1 mph - N/A   Clear
6:13 AM 66.2 °F - 60.8 °F 83% 29.85 in 10.0 mi SSW 5.8 mph - N/A   Clear
6:33 AM 64.4 °F - 59.0 °F 83% 29.85 in 10.0 mi South 5.8 mph - N/A   Clear
6:53 AM 64.4 °F - 59.0 °F 83% 29.85 in 10.0 mi South 5.8 mph - N/A   Clear
7:13 AM 64.4 °F - 60.8 °F 88% 29.86 in 10.0 mi South 5.8 mph - N/A   Clear
7:33 AM 66.2 °F - 60.8 °F 83% 29.86 in 10.0 mi South 4.6 mph - N/A   Clear
7:53 AM 69.8 °F - 62.6 °F 78% 29.87 in 10.0 mi South 3.5 mph - N/A   Clear
8:12 AM 71.6 °F - 62.6 °F 73% 29.86 in 10.0 mi South 5.8 mph - N/A   Clear
8:33 AM 71.6 °F - 62.6 °F 73% 29.86 in 10.0 mi South 6.9 mph - N/A   Clear
8:53 AM 73.4 °F - 62.6 °F 69% 29.86 in 10.0 mi South 5.8 mph - N/A   Clear
9:12 AM 75.2 °F - 64.4 °F 69% 29.86 in 10.0 mi South 6.9 mph - N/A   Clear
9:33 AM 75.2 °F - 64.4 °F 69% 29.86 in 10.0 mi South 5.8 mph - N/A   Clear
9:53 AM 78.8 °F - 64.4 °F 61% 29.86 in 10.0 mi SSW 5.8 mph - N/A   Clear
10:12 AM 78.8 °F - 64.4 °F 61% 29.86 in 10.0 mi WSW 8.1 mph - N/A   Clear
10:33 AM 80.6 °F 82.3 °F 64.4 °F 58% 29.86 in 10.0 mi WSW 5.8 mph - N/A   Clear
10:53 AM 82.4 °F 83.9 °F 64.4 °F 54% 29.86 in 10.0 mi WSW 8.1 mph - N/A   Clear
11:33 AM 84.2 °F 85.6 °F 64.4 °F 51% 29.85 in 10.0 mi West 6.9 mph - N/A   Clear
11:53 AM 84.2 °F 85.6 °F 64.4 °F 51% 29.85 in 10.0 mi WNW 5.8 mph - N/A   Clear
12:12 PM 84.2 °F 85.0 °F 62.6 °F 48% 29.85 in 10.0 mi West 4.6 mph - N/A   Clear
12:33 PM 86.0 °F 86.1 °F 60.8 °F 43% 29.84 in 10.0 mi WSW 5.8 mph - N/A   Clear
12:53 PM 87.8 °F 87.1 °F 59.0 °F 38% 29.83 in 10.0 mi West 4.6 mph - N/A   Clear
1:12 PM 87.8 °F 86.1 °F 55.4 °F 33% 29.83 in 10.0 mi West 8.1 mph - N/A   Clear
1:33 PM 89.6 °F 87.7 °F 55.4 °F 31% 29.82 in 10.0 mi WNW 10.4 mph - N/A   Clear
1:53 PM 89.6 °F - 46.4 °F 22% 29.82 in 10.0 mi NNW 10.4 mph - N/A   Clear
2:12 PM 89.6 °F - 46.4 °F 22% 29.82 in 10.0 mi WNW 9.2 mph - N/A   Clear
2:33 PM 91.4 °F - 39.2 °F 16% 29.81 in 10.0 mi WNW 5.8 mph - N/A   Clear
3:13 PM 91.4 °F - 37.4 °F 15% 29.81 in 10.0 mi NNW 8.1 mph - N/A   Clear
3:33 PM 91.4 °F - 37.4 °F 15% 29.81 in 10.0 mi NW 4.6 mph - N/A   Clear
3:52 PM 91.4 °F - 37.4 °F 15% 29.81 in 10.0 mi NNW 6.9 mph - N/A   Clear
4:13 PM 91.4 °F - 37.4 °F 15% 29.80 in 10.0 mi NW 3.5 mph - N/A   Clear
4:25 PM 91.4 °F - 37.4 °F 15% 29.80 in 10.0 mi NNE 5.8 mph - N/A   Clear
4:52 PM 89.6 °F - 37.4 °F 16% 29.79 in 10.0 mi Calm Calm - N/A   Clear
5:13 PM 91.4 °F - 37.4 °F 15% 29.79 in 10.0 mi NNW 5.8 mph - N/A   Clear
5:33 PM 89.6 °F - 39.2 °F 17% 29.79 in 10.0 mi North 4.6 mph - N/A   Clear
5:52 PM 89.6 °F - 39.2 °F 17% 29.79 in 10.0 mi North 3.5 mph - N/A   Clear
6:13 PM 89.6 °F - 39.2 °F 17% 29.79 in 10.0 mi North 3.5 mph - N/A   Clear
6:33 PM 87.8 °F - 42.8 °F 21% 29.78 in 10.0 mi Calm Calm - N/A   Clear
6:52 PM 87.8 °F - 42.8 °F 21% 29.78 in 10.0 mi NNE 3.5 mph - N/A   Clear
7:13 PM 84.2 °F - 44.6 °F 25% 29.77 in 10.0 mi NNE 3.5 mph - N/A   Clear
7:33 PM 82.4 °F - 46.4 °F 28% 29.77 in 10.0 mi NE 3.5 mph - N/A   Clear
7:52 PM 80.6 °F - 44.6 °F 28% 29.77 in 10.0 mi Calm Calm - N/A   Clear
8:13 PM 80.6 °F - 44.6 °F 28% 29.76 in 10.0 mi NE 3.5 mph - N/A   Clear
8:33 PM 78.8 °F - 44.6 °F 30% 29.76 in 10.0 mi Calm Calm - N/A   Clear
8:52 PM 78.8 °F - 44.6 °F 30% 29.76 in 10.0 mi ENE 3.5 mph - N/A   Clear
9:13 PM 78.8 °F - 44.6 °F 30% 29.74 in 10.0 mi ENE 4.6 mph - N/A   Clear
9:33 PM 78.8 °F - 42.8 °F 28% 29.76 in 10.0 mi ENE 4.6 mph - N/A   Clear
9:52 PM 78.8 °F - 42.8 °F 28% 29.75 in 10.0 mi ENE 5.8 mph - N/A   Clear
10:13 PM 78.8 °F - 42.8 °F 28% 29.75 in 10.0 mi NE 10.4 mph - N/A   Clear
10:52 PM 78.8 °F - 44.6 °F 30% 29.74 in 10.0 mi NNE 11.5 mph - N/A Thunderstorm Scattered Clouds
11:13 PM 77.0 °F - 48.2 °F 36% - 10.0 mi West 12.7 mph - N/A Rain , Thunderstorm Thunderstorms and Rain
11:33 PM 66.2 °F - 59.0 °F 78% 29.95 in 10.0 mi WSW 15.0 mph 27.6 mph 0.04 in Rain , Thunderstorm Light Thunderstorms and Rain
11:53 PM 64.4 °F - 59.0 °F 83% 29.95 in - WSW 10.4 mph - 0.05 in Rain , Thunderstorm Light Thunderstorms and Rain